Погода в Погиби

Погода в Погиби : погода сейчас, прогноз погоды и архив. Всё, что Вы хотите узнать о погоде в Погиби!

Хотите узнать прогноз погоды в Погиби? Тогда Вам сюда: Погода в Погиби

Поиск расширенной информации на нашем сайте:

Другие новости

Новости СМИ2

Главная страница сайта

Новости сайта

02.10.2013

Напоминаем, что на нашем новом сайте вы можете получить высокодетализированные прогнозы погоды по пунктам России, СНГ и мира (включающие важные для авиации метеовеличины, такие как направление и скорость ветра, видимость, явления погоды, количество и форма облачности, нижняя и верхняя граница облачности), а также ознакомиться с разнообразными материалами по авиационной метеорологии и подборкой полезных ссылок на эту тему.

Сайт Метеоцентр.Азия посвящён разработке технологий оптимизации авиаметеорологического обслуживания, включая проектирование и перспективное создание нескольких автоматизированных авиаметеорологических систем:
- система выпуска высокодетальных прогностических карт явлений погоды для нижнего воздушного пространства по России и ближнему зарубежью;
- система верификации прогнозов TAF (выпускаемых синоптиками официальных АМСГ РФ и ближнего зарубежья) и AUTOTAF (выпускаемых сайтом Метеоцентр.Азия) - выявление ошибок, онлайн-сопоставление с фактической погодой METAR, автоматическое внесение коррективов в прогнозы при резком отклонении фактической погоды от прогноза, подсчёт оправдываемости прогнозов по элементам и в целом;
- система обработки, анализа и отображения авиаметеорологической информации для применения провайдерами метеорологической информации.


Погода в Погиби - сегодня

Время (UTC), дата Ветер
(°,м/с) 
Видим.   Явления Облачность Т
(°С)
Тd
(°С)
f(%) Тe
(°С)
Pmin
(гПа)
dP
(гПа)
Po
(мм)
O2
(г/м3)
Тmin Tmax R s Состояние
почвы
00 27.04.17 360 (С) 2-3{04}  20000 м    10/10 600 м кучево-дожд. 
[Cb cap]
-2.2 -4.7 83 -3  1003.5  -0.7  752  306           
03 27.04.17 340 (С) 4-5{06}  20000 м    9/9 600 м кучево-дожд. 
[Cb cap]
-0.1 -3.5 78 -3  1002.2  -1.3  751  303           
06 27.04.17 340 (С) 4-5{06}  20000 м    8/3 600 м кучево-дожд., средняя, верхняя 
[Cb cap|Ac trans|Ci sp]
-0.4 -3.4 80 -3  1001.1  -1.1  750  303           
09 27.04.17 340 (С) 3-4{05}  20000 м    8/3 600 м кучево-дожд., средняя, верхняя 
[Cb cap|Ac trans|Ci sp]
-1.2 -2.8 89 -3  1000.1  -1  749  304    +0.1       
12 27.04.17 360 (С) 2-3{04}  20000 м    4/0 средняя, верхняя 
[Ac trans|Ci sp]
-3.8 -5.3 89 -5  999.8  -0.3  749  307           
15 27.04.17 360 (С) 1-2{03}  20000 м    3/0 верхняя 
[Ci sp]
-7.4 -8.7 90 -7  999.5  -0.3  749  311           
18 27.04.17 360 (С) 2-3{94}  20000 м    8/3 600 м кучево-дожд., средняя 
[Cb cap|Ac trans]
-4 -5.2 91 -5  998.8  -0.3  748  307           
21 27.04.17 360 (С) 2-3{04}  20000 м    10/10 600 м кучево-дожд. 
[Cb cap]
-3.4 -4.5 92 -5  998.6  -0.2  748  306  -7.4      59  мокрый или
старый снег
50-90% 
00 28.04.17 340 (С) 2-3{04}  20000 м    9/9 600 м кучево-дожд. 
[Cb cap]
-1.9 -4 86 -3  999.2  0.6  749  304           
03 28.04.17 340 (С) 3-4{05}  20000 м    9/9 600 м кучево-дожд. 
[Cb cap]
-0.3 -3.3 80 -2  999.5  0.3  749  302           
06 28.04.17 340 (С) 2-3{04}  20000 м    6/0 средняя, верхняя 
[Ac trans|Ci sp]
+0.3 -2.7 80 999.5  749  302           
09 28.04.17 360 (С) 1-2{03}  20000 м    3/0 верхняя 
[Ci sp]
-1.9 -4.7 81 -1  999.5  749  304    -1.9       
12 28.04.17 360 (С) 1-2{03}  20000 м    3/0 верхняя 
[Ci sp]
-3.9 -6.5 82 -3  1000.2  0.7  749  307           
15 28.04.17 180 (Ю) 2-3{04}  20000 м    ясно 
-1.5 -2.9 90 -2  1000.3  0.1  750  304           
21 28.04.17 180 (Ю) 3-4{05}  4000 м  слаб. снег  10/0 средняя 
[As op]
-0.5 -1.1 96 -2  1000.2  -0.1  749  303  -4.1    0.4  57  мокрый или
старый снег
50-90% 
00 29.04.17 180 (Ю) 4-5{06}  10 км  слаб. ливневой снег  10/10 600 м кучево-дожд. 
[Cb cap]
+0.5 -0.3 94 -2  1000.2  749  301           
03 29.04.17 180 (Ю) 3-4{05}  20000 м  {ливн. осадки}  10/10 600 м кучево-дожд. 
[Cb cap]
+1.3 -0.1 90 1000.2  749  301           
06 29.04.17 180 (Ю) 3-4{05}  20000 м  {ливн. осадки}  6/3 600 м кучево-дожд., средняя, верхняя 
[Cb cap|Ac trans|Ci sp]
+3.1 +0.7 84 +2  1000  -0.2  749  298           
09 29.04.17 180 (Ю) 4-5{06}  20000 м    6/0 средняя, верхняя 
[Ac trans|Ci sp]
+2.1 +0.5 89 1001.5  1.5  750  300    +3.5  0.4     
12 29.04.17 160 (Ю) 3-4{05}  20000 м    5/0 средняя, верхняя 
[Ac trans|Ci sp]
+0.7 -1.9 83 -1  1003.8  2.3  752  303           
15 29.04.17 140 (ЮВ) 1-2{04}  20000 м    3/0 средняя 
[Ac trans]
-2.3 -3.2 94 -2  1004.8  753  306           
18 29.04.17 140 (ЮВ) 2-2{03}  20000 м    3/0 средняя 
[Ac trans]
-3.4 -0.2 100 -5  1005.9  1.1  754  308           
21 29.04.17 070 (В) 2-3{04}  20000 м    9/6 600 м кучево-дожд., средняя 
[Cb cap|Ac trans]
-1.8 -2.9 92 -3  1006.6  0.7  754  306  -3.5      51  мокрый или
старый снег
50-90% 
00 30.04.17 360 (С) 1-2{03}  20000 м    8/4 600 м кучево-дожд., средняя 
[Cb cap|Ac trans]
+2.6 -2.3 70 +3  1007.5  0.9  755  302           
03 30.04.17 320 (СЗ) 4-5{06}  20000 м    8/3 600 м кучево-дожд., средняя 
[Cb cap|Ac trans]
+2 -0.5 83 1007.5  755  302           
Время (UTC), дата Ветер
(°,м/с) 
Видим.   Явления Облачность Т
(°С)
Тd
(°С)
f(%) Тe
(°С)
Pmin
(гПа)
dP
(гПа)
Po
(мм)
O2
(г/м3)
Тmin Tmax R s Состояние
почвы

Для получения пояснительной информации подведите курсор к названию столбца.

ПОГОДА в Погиби - архив

Всё, что Вы хотите узнать о погоде в Погиби - удобно и подробно!

Выберите нужную дату (начиная с 1 января 2015* года) и нажмите кнопку "Найти".
Будут отображены архивные сводки погоды по пункту Погиби, начиная с указанной даты.


Отображать данные в формате CSV (для использования в таблицах Excel)


Внимание! Наш архив погоды предназначен исключительно для личного некоммерческого использования в познавательных целях. Если Вам необходимы официальные справки о состоянии погоды (для производственных, юридических, коммерческих и т.п. целей), обращайтесь в органы Росгидромета.

*Примечание: данная дата относится к архиву по метеостанциям СССР (Россия, СНГ, Балтия).
Архив по метеостанциям Зарубежной Европы и Азии (кроме Китая) хранится 10 дней, по другим регионам земного шара (Китай, Африка, Америка, Австралия, Океания) - 1 день.

Погиби - район местоположения метеостанции


Название, широта, долгота, высота метеостанции:
Погиби 52.2°ш. 141.6°д. 6 м над ур. моря [Российская Федерация]

Дополнительная информация

В oтличие oт бoльшинства пoгoдных сайтoв мы публикуем пoдрoбную метеoинфoрмацию в детальнoм прoфессиoнальнoм фoрмате.

Характеристики температуры и влажнoсти вoздуха измеряются на высoте 2 м в тени вдали oт зданий и деревьев.
Скoрoсть ветра измеряется на высoте 10 м (на урoвне рoста челoвека скoрoсть ветра ниже в 1.5-2 раза). Если метеoстанция нахoдится в гoрoде или в лесу, тo скoрoсть ветра занижена на 2-4 м/с пo сравнению с oткрытым местoм. Скoрoсть ветра над акватoриями крупных рек и oзёр, а также на вершинах хoлмoв на 2-5 м/с выше, чем в oбычных услoвиях.
Атмoсфернoе давление в разных тoчках местнoсти мoжет значительнo oтличаться oт давления на метеoстанции, в зависимoсти oт услoвий рельефа (при пoдъёме на 10 м давление пoнижается примернo на 1 мм рт.ст.).